Location: Unspecified
(0.0000°N, 0.0000°E)
Time: 04:54:21
(UTC+00:00)

CUTE 1.7 + AOD 2 - Pass Details

Date: 22 May 2026
Orbit: 531 x 545 km, 97.8° (Epoch: 11 June)

Event Time Altitude Azimuth Distance (km) Brightness Sun altitude
Rises 03:46:36 0° 24° (NNE) 2,659 ? -30.3°
Reaches altitude 10° 03:48:47 10° 32° (NNE) 1,774 ? -29.8°
Enters shadow 03:51:21 32° 64° (ENE) 921 ? -29.2°
